Time,TemperatureF,DewpointF,PressureIn,WindDirection,WindDirectionDegrees,WindSpeedMPH,WindSpeedGustMPH,Humidity,HourlyPrecipIn,Conditions,Clouds,dailyrainin,SolarRadiationWatts/m^2,SoftwareType,DateUTC
2013-01-03 00:00:00,24.4,14.0,30.23,NNW,328,0.0,0.0,64,0.00,BKN,,0.00,0.0,WeatherDisplay:10.37,2013-01-03 05:00:00,
2013-01-03 00:01:00,24.4,14.0,30.23,NNW,328,0.0,0.0,64,0.00,BKN,,0.00,0.0,WeatherDisplay:10.37,2013-01-03 05:01:00,
2013-01-03 00:02:00,24.4,14.0,30.23,NNW,328,0.0,0.0,64,0.00,BKN,,0.00,0.0,WeatherDisplay:10.37,2013-01-03 05:02:00,
2013-01-03 00:03:00,24.2,13.8,30.23,NNW,328,0.0,0.0,64,0.00,BKN,,0.00,0.0,WeatherDisplay:10.37,2013-01-03 05:03:00,
2013-01-03 00:08:00,24.2,13.8,30.24,NNW,328,0.0,0.0,64,0.00,BKN,,0.00,0.0,WeatherDisplay:10.37,2013-01-03 05:08:00,
2013-01-03 00:13:00,24.2,14.1,30.23,NNW,328,0.0,0.0,65,0.00,SCT,,0.00,0.0,WeatherDisplay:10.37,2013-01-03 05:13:00,
2013-01-03 00:18:00,24.2,14.1,30.23,NNW,328,0.0,0.0,65,0.00,SCT,,0.00,0.0,WeatherDisplay:10.37,2013-01-03 05:18:00,
2013-01-03 00:23:00,24.1,14.0,30.23,NNW,328,0.0,0.0,65,0.00,SCT,,0.00,0.0,WeatherDisplay:10.37,2013-01-03 05:23:00,
2013-01-03 00:28:00,23.9,13.8,30.23,NNW,328,0.0,0.0,65,0.00,SCT,,0.00,0.0,WeatherDisplay:10.37,2013-01-03 05:28:00,
2013-01-03 00:33:00,23.9,13.8,30.23,NNW,328,0.0,0.0,65,0.00,SCT,,0.00,0.0,WeatherDisplay:10.37,2013-01-03 05:33:00,
2013-01-03 00:38:00,23.6,13.5,30.23,NNW,328,0.0,0.0,65,0.00,SCT,,0.00,0.0,WeatherDisplay:10.37,2013-01-03 05:38:00,
2013-01-03 00:43:00,23.5,13.5,30.23,NNW,328,0.0,0.0,65,0.00,SCT,,0.00,0.0,WeatherDisplay:10.37,2013-01-03 05:43:00,
2013-01-03 00:48:00,23.3,13.6,30.23,NNW,328,0.0,0.0,66,0.00,SCT,,0.00,0.0,WeatherDisplay:10.37,2013-01-03 05:48:00,
2013-01-03 00:53:00,23.2,13.5,30.23,NNW,328,0.0,0.0,66,0.00,SCT,,0.00,0.0,WeatherDisplay:10.37,2013-01-03 05:53:00,
2013-01-03 00:58:00,22.9,13.6,30.23,NNW,328,0.0,0.0,67,0.00,SCT,,0.00,0.0,WeatherDisplay:10.37,2013-01-03 05:58:00,
2013-01-03 01:03:00,22.5,13.5,30.22,NNW,328,0.0,0.0,68,0.00,SCT,,0.00,0.0,WeatherDisplay:10.37,2013-01-03 06:03:00,
2013-01-03 01:08:00,22.5,13.9,30.23,NNW,328,0.0,0.0,69,0.00,SCT,,0.00,0.0,WeatherDisplay:10.37,2013-01-03 06:08:00,
2013-01-03 01:13:00,22.7,14.1,30.22,NNW,328,0.0,0.0,69,0.00,BKN,,0.00,0.0,WeatherDisplay:10.37,2013-01-03 06:13:00,
2013-01-03 01:18:00,22.5,13.9,30.22,NNW,328,0.0,0.0,69,0.00,BKN,,0.00,0.0,WeatherDisplay:10.37,2013-01-03 06:18:00,
2013-01-03 01:23:00,22.4,14.4,30.22,NNW,328,0.0,0.0,71,0.00,BKN,,0.00,0.0,WeatherDisplay:10.37,2013-01-03 06:23:00,
2013-01-03 01:28:00,22.4,14.4,30.22,NNW,328,0.0,0.0,71,0.00,BKN,,0.00,0.0,WeatherDisplay:10.37,2013-01-03 06:28:00,
2013-01-03 01:33:00,22.4,14.4,30.22,NNW,328,0.0,0.0,71,0.00,BKN,,0.00,0.0,WeatherDisplay:10.37,2013-01-03 06:33:00,
2013-01-03 01:38:00,22.7,14.7,30.22,NNW,328,0.1,1.7,71,0.00,BKN,,0.00,0.0,WeatherDisplay:10.37,2013-01-03 06:38:00,
2013-01-03 01:43:00,22.9,14.6,30.21,NNW,328,0.0,0.0,70,0.00,BKN,,0.00,0.0,WeatherDisplay:10.37,2013-01-03 06:43:00,
2013-01-03 01:48:00,23.0,14.7,30.22,NNW,328,0.0,0.0,70,0.00,BKN,,0.00,0.0,WeatherDisplay:10.37,2013-01-03 06:48:00,
2013-01-03 01:53:00,23.2,14.5,30.22,NNW,328,0.0,0.0,69,0.00,BKN,,0.00,0.0,WeatherDisplay:10.37,2013-01-03 06:53:00,
2013-01-03 01:59:00,23.3,14.6,30.21,NNW,328,0.0,1.1,69,0.00,BKN,,0.00,0.0,WeatherDisplay:10.37,2013-01-03 06:59:00,
2013-01-03 02:04:00,23.5,14.5,30.21,NNW,328,0.0,0.0,68,0.00,BKN,,0.00,0.0,WeatherDisplay:10.37,2013-01-03 07:04:00,
2013-01-03 02:09:00,23.6,14.6,30.22,NNW,328,0.0,0.0,68,0.00,BKN,,0.00,0.0,WeatherDisplay:10.37,2013-01-03 07:09:00,
2013-01-03 02:14:00,23.5,14.5,30.22,NNW,328,0.0,0.0,68,0.00,BKN,,0.00,0.0,WeatherDisplay:10.37,2013-01-03 07:14:00,
2013-01-03 02:19:00,23.6,14.6,30.22,NNW,328,0.0,0.0,68,0.00,BKN,,0.00,0.0,WeatherDisplay:10.37,2013-01-03 07:19:00,
2013-01-03 02:24:00,23.9,14.5,30.23,NNW,328,0.0,0.0,67,0.00,BKN,,0.00,0.0,WeatherDisplay:10.37,2013-01-03 07:24:00,
2013-01-03 02:29:00,23.9,14.2,30.22,NNW,328,0.0,0.0,66,0.00,BKN,,0.00,0.0,WeatherDisplay:10.37,2013-01-03 07:29:00,
2013-01-03 02:34:00,24.1,14.4,30.22,NNW,328,0.0,0.0,66,0.00,BKN,,0.00,0.0,WeatherDisplay:10.37,2013-01-03 07:34:00,
2013-01-03 02:39:00,23.9,14.2,30.22,NNW,328,0.0,0.0,66,0.00,BKN,,0.00,0.0,WeatherDisplay:10.37,2013-01-03 07:39:00,
2013-01-03 02:44:00,23.9,14.2,30.23,NNW,328,0.0,0.0,66,0.00,BKN,,0.00,0.0,WeatherDisplay:10.37,2013-01-03 07:44:00,
2013-01-03 02:49:00,23.9,14.5,30.22,NNW,328,0.0,0.0,67,0.00,BKN,,0.00,0.0,WeatherDisplay:10.37,2013-01-03 07:49:00,
2013-01-03 02:54:00,24.1,14.4,30.22,NNW,328,0.0,0.0,66,0.00,BKN,,0.00,0.0,WeatherDisplay:10.37,2013-01-03 07:54:00,
2013-01-03 02:59:00,24.1,14.4,30.23,NNW,328,0.0,0.0,66,0.00,BKN,,0.00,0.0,WeatherDisplay:10.37,2013-01-03 07:59:00,
2013-01-03 03:04:00,23.9,14.2,30.23,NNW,328,0.0,0.0,66,0.00,BKN,,0.00,0.0,WeatherDisplay:10.37,2013-01-03 08:04:00,
2013-01-03 03:09:00,23.8,14.4,30.23,NNW,328,0.0,0.0,67,0.00,BKN,,0.00,0.0,WeatherDisplay:10.37,2013-01-03 08:09:00,
2013-01-03 03:14:00,23.5,14.5,30.22,NNW,328,0.0,0.0,68,0.00,OVC,,0.00,0.0,WeatherDisplay:10.37,2013-01-03 08:14:00,
2013-01-03 03:19:00,23.3,14.3,30.23,NNW,328,0.0,0.0,68,0.00,OVC,,0.00,0.0,WeatherDisplay:10.37,2013-01-03 08:19:00,
2013-01-03 03:24:00,23.2,14.5,30.23,NNW,328,0.0,0.0,69,0.00,OVC,,0.00,0.0,WeatherDisplay:10.37,2013-01-03 08:24:00,
2013-01-03 03:30:00,23.2,14.9,30.23,NNW,328,0.0,0.0,70,0.00,OVC,,0.00,0.0,WeatherDisplay:10.37,2013-01-03 08:30:00,
2013-01-03 03:35:00,23.0,14.7,30.23,NNW,328,0.0,0.0,70,0.00,OVC,,0.00,0.0,WeatherDisplay:10.37,2013-01-03 08:35:00,
2013-01-03 03:40:00,22.9,14.9,30.22,NNW,328,0.0,0.0,71,0.00,OVC,,0.00,0.0,WeatherDisplay:10.37,2013-01-03 08:40:00,
2013-01-03 03:45:00,22.7,14.7,30.22,NNW,328,0.0,0.0,71,0.00,OVC,,0.00,0.0,WeatherDisplay:10.37,2013-01-03 08:45:00,
2013-01-03 03:50:00,22.5,14.5,30.22,NNW,328,0.0,0.0,71,0.00,OVC,,0.00,0.0,WeatherDisplay:10.37,2013-01-03 08:50:00,
2013-01-03 03:55:00,22.4,14.4,30.22,NNW,328,0.0,0.0,71,0.00,OVC,,0.00,0.0,WeatherDisplay:10.37,2013-01-03 08:55:00,
2013-01-03 04:00:00,22.4,14.4,30.22,NNW,328,0.0,0.0,71,0.00,OVC,,0.00,0.0,WeatherDisplay:10.37,2013-01-03 09:00:00,
2013-01-03 04:05:00,22.1,14.4,30.23,NNW,328,0.0,0.0,72,0.00,OVC,,0.00,0.0,WeatherDisplay:10.37,2013-01-03 09:05:00,
2013-01-03 04:10:00,21.9,14.3,30.22,NNW,328,0.0,0.0,72,0.00,OVC,,0.00,0.0,WeatherDisplay:10.37,2013-01-03 09:10:00,
2013-01-03 04:15:00,21.8,14.2,30.22,NNW,328,0.0,0.0,72,0.00,BKN,,0.00,0.0,WeatherDisplay:10.37,2013-01-03 09:15:00,
2013-01-03 04:20:00,21.4,14.1,30.22,NNW,328,0.0,0.0,73,0.00,BKN,,0.00,0.0,WeatherDisplay:10.37,2013-01-03 09:20:00,
2013-01-03 04:25:00,21.3,14.0,30.22,NNW,328,0.0,0.0,73,0.00,BKN,,0.00,0.0,WeatherDisplay:10.37,2013-01-03 09:25:00,
2013-01-03 04:30:00,21.1,13.8,30.22,NNW,328,0.0,0.0,73,0.00,BKN,,0.00,0.0,WeatherDisplay:10.37,2013-01-03 09:30:00,
2013-01-03 04:35:00,21.1,14.1,30.22,NNW,328,0.0,0.0,74,0.00,BKN,,0.00,0.0,WeatherDisplay:10.37,2013-01-03 09:35:00,
2013-01-03 04:40:00,21.0,14.0,30.22,NNW,328,0.0,0.0,74,0.00,BKN,,0.00,0.0,WeatherDisplay:10.37,2013-01-03 09:40:00,
2013-01-03 04:45:00,20.8,13.8,30.22,NNW,328,0.0,0.0,74,0.00,BKN,,0.00,0.0,WeatherDisplay:10.37,2013-01-03 09:45:00,
2013-01-03 04:50:00,20.6,13.6,30.22,NNW,328,0.0,0.0,74,0.00,BKN,,0.00,0.0,WeatherDisplay:10.37,2013-01-03 09:50:00,
2013-01-03 04:55:00,20.6,13.9,30.22,NNW,328,0.0,0.0,75,0.00,BKN,,0.00,0.0,WeatherDisplay:10.37,2013-01-03 09:55:00,
2013-01-03 05:00:00,20.6,13.9,30.22,NNW,328,0.0,0.0,75,0.00,BKN,,0.00,0.0,WeatherDisplay:10.37,2013-01-03 10:00:00,
2013-01-03 05:05:00,20.6,14.2,30.21,NNW,328,0.0,0.0,76,0.00,BKN,,0.00,0.0,WeatherDisplay:10.37,2013-01-03 10:05:00,
2013-01-03 05:10:00,20.5,14.1,30.22,NNW,328,0.0,0.0,76,0.00,BKN,,0.00,0.0,WeatherDisplay:10.37,2013-01-03 10:10:00,
2013-01-03 05:15:00,20.3,13.9,30.23,NNW,328,0.0,0.0,76,0.00,BKN,,0.00,0.0,WeatherDisplay:10.37,2013-01-03 10:15:00,
2013-01-03 05:20:00,20.2,13.8,30.23,NNW,328,0.0,0.0,76,0.00,BKN,,0.00,0.0,WeatherDisplay:10.37,2013-01-03 10:20:00,
2013-01-03 05:25:00,20.2,14.1,30.23,NNW,328,0.0,0.0,77,0.00,BKN,,0.00,0.0,WeatherDisplay:10.37,2013-01-03 10:25:00,
2013-01-03 05:31:00,20.0,13.9,30.23,NNW,328,0.0,0.0,77,0.00,BKN,,0.00,0.0,WeatherDisplay:10.37,2013-01-03 10:31:00,
2013-01-03 05:36:00,19.9,13.9,30.23,NNW,328,0.0,0.0,77,0.00,BKN,,0.00,0.0,WeatherDisplay:10.37,2013-01-03 10:36:00,
2013-01-03 05:41:00,19.7,13.7,30.23,NNW,328,0.0,0.0,77,0.00,BKN,,0.00,0.0,WeatherDisplay:10.37,2013-01-03 10:41:00,
2013-01-03 05:46:00,19.4,13.4,30.23,NNW,328,0.0,0.0,77,0.00,BKN,,0.00,0.0,WeatherDisplay:10.37,2013-01-03 10:46:00,
2013-01-03 05:51:00,19.2,13.2,30.23,NNW,328,0.0,0.0,77,0.00,BKN,,0.00,0.0,WeatherDisplay:10.37,2013-01-03 10:51:00,
2013-01-03 05:56:00,18.9,12.9,30.23,NNW,328,0.0,0.0,77,0.00,BKN,,0.00,0.0,WeatherDisplay:10.37,2013-01-03 10:56:00,
2013-01-03 06:01:00,18.6,12.9,30.23,NNW,328,0.0,0.0,78,0.00,BKN,,0.00,0.0,WeatherDisplay:10.37,2013-01-03 11:01:00,
2013-01-03 06:06:00,18.4,12.7,30.23,NNW,328,0.0,0.0,78,0.00,BKN,,0.00,0.0,WeatherDisplay:10.37,2013-01-03 11:06:00,
2013-01-03 06:11:00,18.1,12.4,30.23,NNW,328,0.0,0.0,78,0.00,BKN,,0.00,0.0,WeatherDisplay:10.37,2013-01-03 11:11:00,
2013-01-03 06:16:00,18.1,12.7,30.23,NNW,328,0.0,0.0,79,0.00,BKN,,0.00,0.0,WeatherDisplay:10.37,2013-01-03 11:16:00,
2013-01-03 06:21:00,18.0,12.6,30.23,NNW,328,0.0,0.0,79,0.00,BKN,,0.00,0.0,WeatherDisplay:10.37,2013-01-03 11:21:00,
2013-01-03 06:26:00,17.7,12.3,30.23,NNW,328,0.0,0.0,79,0.00,BKN,,0.00,0.0,WeatherDisplay:10.37,2013-01-03 11:26:00,
2013-01-03 06:31:00,17.2,11.8,30.24,NNW,328,0.0,0.0,79,0.00,BKN,,0.00,0.0,WeatherDisplay:10.37,2013-01-03 11:31:00,
2013-01-03 06:36:00,17.0,11.6,30.24,NNW,328,0.0,0.0,79,0.00,BKN,,0.00,0.0,WeatherDisplay:10.37,2013-01-03 11:36:00,
2013-01-03 06:41:00,16.9,11.8,30.24,NNW,328,0.0,0.0,80,0.00,BKN,,0.00,0.0,WeatherDisplay:10.37,2013-01-03 11:41:00,
2013-01-03 06:46:00,16.7,11.6,30.23,NNW,328,0.0,0.0,80,0.00,BKN,,0.00,0.0,WeatherDisplay:10.37,2013-01-03 11:46:00,
2013-01-03 06:51:00,16.5,11.4,30.23,NNW,328,0.0,0.0,80,0.00,BKN,,0.00,0.0,WeatherDisplay:10.37,2013-01-03 11:51:00,
2013-01-03 06:56:00,16.4,11.3,30.23,NNW,328,0.0,0.0,80,0.00,BKN,,0.00,0.0,WeatherDisplay:10.37,2013-01-03 11:56:00,
2013-01-03 07:01:00,16.4,11.6,30.23,NNW,328,0.0,0.0,81,0.00,BKN,,0.00,0.0,WeatherDisplay:10.37,2013-01-03 12:01:00,
2013-01-03 07:06:00,16.5,11.7,30.23,NNW,328,0.0,0.0,81,0.00,BKN,,0.00,0.0,WeatherDisplay:10.37,2013-01-03 12:06:00,
2013-01-03 07:11:00,16.4,11.6,30.23,NNW,328,0.0,0.0,81,0.00,BKN,,0.00,0.0,WeatherDisplay:10.37,2013-01-03 12:11:00,
2013-01-03 07:16:00,16.2,11.4,30.24,NNW,328,0.0,0.0,81,0.00,BKN,,0.00,0.0,WeatherDisplay:10.37,2013-01-03 12:16:00,
2013-01-03 07:21:00,16.1,11.6,30.24,NNW,328,0.0,0.0,82,0.00,BKN,,0.00,0.0,WeatherDisplay:10.37,2013-01-03 12:21:00,
2013-01-03 07:26:00,16.1,11.6,30.24,NNW,328,0.0,0.0,82,0.00,BKN,,0.00,0.0,WeatherDisplay:10.37,2013-01-03 12:26:00,
2013-01-03 07:31:00,15.9,11.4,30.24,NNW,328,0.0,0.0,82,0.00,BKN,,0.00,0.0,WeatherDisplay:10.37,2013-01-03 12:31:00,
2013-01-03 07:36:00,15.9,11.7,30.24,NNW,328,0.0,0.0,83,0.00,BKN,,0.00,0.0,WeatherDisplay:10.37,2013-01-03 12:36:00,
2013-01-03 07:44:00,15.7,11.5,30.24,NNW,328,0.0,0.0,83,0.00,BKN,,0.00,7.0,WeatherDisplay:10.37,2013-01-03 12:44:00,
2013-01-03 07:49:00,15.6,11.4,30.24,NNW,328,0.0,0.0,83,0.00,BKN,,0.00,11.0,WeatherDisplay:10.37,2013-01-03 12:49:00,
2013-01-03 07:54:00,15.4,11.2,30.24,NNW,328,0.0,0.0,83,0.00,BKN,,0.00,14.0,WeatherDisplay:10.37,2013-01-03 12:54:00,
2013-01-03 07:59:00,15.4,11.2,30.25,NNW,328,0.0,0.0,83,0.00,BKN,,0.00,14.0,WeatherDisplay:10.37,2013-01-03 12:59:00,
2013-01-03 08:04:00,15.6,11.4,30.24,NNW,328,0.0,0.0,83,0.00,BKN,,0.00,18.0,WeatherDisplay:10.37,2013-01-03 13:04:00,
2013-01-03 08:09:00,15.9,11.9,30.25,NNW,328,0.0,0.0,84,0.00,BKN,,0.00,21.0,WeatherDisplay:10.37,2013-01-03 13:09:00,
2013-01-03 08:14:00,15.9,11.9,30.25,NNW,328,0.0,0.0,84,0.00,BKN,,0.00,26.0,WeatherDisplay:10.37,2013-01-03 13:14:00,
2013-01-03 08:19:00,16.1,12.1,30.25,NNW,328,0.0,0.0,84,0.00,BKN,,0.00,32.0,WeatherDisplay:10.37,2013-01-03 13:19:00,
2013-01-03 08:24:00,16.4,12.4,30.25,NNW,328,0.0,0.0,84,0.00,BKN,,0.00,35.0,WeatherDisplay:10.37,2013-01-03 13:24:00,
2013-01-03 08:29:00,16.7,13.0,30.25,NNW,328,0.0,0.0,85,0.00,BKN,,0.00,39.0,WeatherDisplay:10.37,2013-01-03 13:29:00,
2013-01-03 08:34:00,16.9,13.2,30.25,NNW,328,0.0,0.0,85,0.00,BKN,,0.00,49.0,WeatherDisplay:10.37,2013-01-03 13:34:00,
2013-01-03 08:39:00,17.0,13.3,30.25,NNW,328,0.0,0.0,85,0.00,BKN,,0.00,76.0,WeatherDisplay:10.37,2013-01-03 13:39:00,
2013-01-03 08:44:00,17.3,13.6,30.25,NNW,328,0.0,0.0,85,0.00,BKN,,0.00,90.0,WeatherDisplay:10.37,2013-01-03 13:44:00,
2013-01-03 08:49:00,17.8,14.3,30.25,NNW,328,0.0,0.0,86,0.00,BKN,,0.00,105.0,WeatherDisplay:10.37,2013-01-03 13:49:00,
2013-01-03 08:54:00,18.8,15.3,30.26,NNW,328,0.0,0.0,86,0.00,BKN,,0.00,114.0,WeatherDisplay:10.37,2013-01-03 13:54:00,
2013-01-03 08:59:00,19.7,16.2,30.25,NNW,328,0.0,0.0,86,0.00,BKN,,0.00,98.0,WeatherDisplay:10.37,2013-01-03 13:59:00,
2013-01-03 09:04:00,20.3,16.8,30.26,NNW,328,0.0,0.0,86,0.00,BKN,,0.00,113.0,WeatherDisplay:10.37,2013-01-03 14:04:00,
2013-01-03 09:09:00,20.8,17.3,30.26,NNW,328,0.0,0.0,86,0.00,BKN,,0.00,132.0,WeatherDisplay:10.37,2013-01-03 14:09:00,
2013-01-03 09:14:00,21.6,18.1,30.26,NNW,328,0.0,0.0,86,0.00,BKN,,0.00,141.0,WeatherDisplay:10.37,2013-01-03 14:14:00,
2013-01-03 09:19:00,22.4,18.8,30.26,NNW,328,0.0,0.0,86,0.00,BKN,,0.00,200.0,WeatherDisplay:10.37,2013-01-03 14:19:00,
2013-01-03 09:24:00,23.3,19.7,30.25,NNW,328,0.0,0.0,86,0.00,BKN,,0.00,195.0,WeatherDisplay:10.37,2013-01-03 14:24:00,
2013-01-03 09:29:00,24.2,20.1,30.25,NNW,328,0.0,0.0,84,0.00,BKN,,0.00,250.0,WeatherDisplay:10.37,2013-01-03 14:29:00,
2013-01-03 09:34:00,24.7,20.0,30.25,NNW,328,0.0,0.0,82,0.00,BKN,,0.00,169.0,WeatherDisplay:10.37,2013-01-03 14:34:00,
2013-01-03 09:39:00,25.6,20.3,30.25,NNW,328,0.0,0.0,80,0.00,BKN,,0.00,229.0,WeatherDisplay:10.37,2013-01-03 14:39:00,
2013-01-03 09:44:00,26.0,20.4,30.25,NNW,328,0.0,0.0,79,0.00,BKN,,0.00,176.0,WeatherDisplay:10.37,2013-01-03 14:44:00,
2013-01-03 09:49:00,26.3,20.1,30.25,NNW,328,0.0,0.0,77,0.00,BKN,,0.00,206.0,WeatherDisplay:10.37,2013-01-03 14:49:00,
2013-01-03 09:54:00,26.6,19.7,30.25,NNW,328,0.0,0.0,75,0.00,BKN,,0.00,213.0,WeatherDisplay:10.37,2013-01-03 14:54:00,
2013-01-03 09:59:00,26.7,19.5,30.25,NNW,328,0.0,0.0,74,0.00,BKN,,0.00,220.0,WeatherDisplay:10.37,2013-01-03 14:59:00,
2013-01-03 10:04:00,27.2,19.7,30.25,NNW,328,0.0,0.0,73,0.00,BKN,,0.00,295.0,WeatherDisplay:10.37,2013-01-03 15:04:00,
2013-01-03 10:09:00,27.6,19.8,30.25,NNW,328,0.0,0.0,72,0.00,BKN,,0.00,318.0,WeatherDisplay:10.37,2013-01-03 15:09:00,
2013-01-03 10:14:00,27.8,19.3,30.25,NNW,328,0.0,0.0,70,0.00,CLR,,0.00,239.0,WeatherDisplay:10.37,2013-01-03 15:14:00,
2013-01-03 10:19:00,28.1,19.2,30.25,NNW,328,0.9,1.1,69,0.00,CLR,,0.00,355.0,WeatherDisplay:10.37,2013-01-03 15:19:00,
2013-01-03 10:24:00,28.1,18.9,30.25,NNW,327,0.3,1.1,68,0.00,CLR,,0.00,383.0,WeatherDisplay:10.37,2013-01-03 15:24:00,
2013-01-03 10:29:00,28.4,19.2,30.25,NW,319,1.2,3.5,68,0.00,CLR,,0.00,369.0,WeatherDisplay:10.37,2013-01-03 15:29:00,
2013-01-03 10:34:00,28.7,19.1,30.24,NW,319,0.0,0.0,67,0.00,CLR,,0.00,415.0,WeatherDisplay:10.37,2013-01-03 15:34:00,
2013-01-03 10:39:00,29.5,19.9,30.24,NW,318,3.4,5.0,67,0.00,CLR,,0.00,429.0,WeatherDisplay:10.37,2013-01-03 15:39:00,
2013-01-03 10:44:00,30.0,19.7,30.24,NW,318,0.0,0.0,65,0.00,CLR,,0.00,473.0,WeatherDisplay:10.37,2013-01-03 15:44:00,
2013-01-03 10:49:00,30.3,19.2,30.24,NW,318,0.0,0.0,63,0.00,CLR,,0.00,341.0,WeatherDisplay:10.37,2013-01-03 15:49:00,
2013-01-03 10:54:00,30.6,19.1,30.24,NW,318,0.0,0.0,62,0.00,CLR,,0.00,341.0,WeatherDisplay:10.37,2013-01-03 15:54:00,
2013-01-03 10:59:00,30.7,18.1,30.24,NW,317,3.1,4.6,59,0.00,CLR,,0.00,374.0,WeatherDisplay:10.37,2013-01-03 15:59:00,
2013-01-03 11:04:00,30.7,18.1,30.23,WNW,292,2.7,5.0,59,0.00,CLR,,0.00,501.0,WeatherDisplay:10.37,2013-01-03 16:04:00,
2013-01-03 11:09:00,30.7,17.7,30.23,West,272,4.2,6.9,58,0.00,CLR,,0.00,357.0,WeatherDisplay:10.37,2013-01-03 16:09:00,
2013-01-03 11:14:00,30.7,17.3,30.23,WSW,250,2.9,4.6,57,0.00,OVC,,0.00,311.0,WeatherDisplay:10.37,2013-01-03 16:14:00,
2013-01-03 11:19:00,30.6,17.2,30.23,WSW,250,0.8,1.7,57,0.00,OVC,,0.00,357.0,WeatherDisplay:10.37,2013-01-03 16:19:00,
2013-01-03 11:24:00,30.9,17.8,30.22,WSW,250,4.5,5.0,58,0.00,OVC,,0.00,362.0,WeatherDisplay:10.37,2013-01-03 16:24:00,
2013-01-03 11:29:00,31.5,18.8,30.22,SE,145,2.7,3.5,59,0.00,OVC,,0.00,392.0,WeatherDisplay:10.37,2013-01-03 16:29:00,
2013-01-03 11:34:00,31.8,18.3,30.21,SSW,199,5.2,6.9,57,0.00,OVC,,0.00,353.0,WeatherDisplay:10.37,2013-01-03 16:34:00,
2013-01-03 11:39:00,31.8,17.9,30.21,SSW,213,3.0,4.6,56,0.00,OVC,,0.00,274.0,WeatherDisplay:10.37,2013-01-03 16:39:00,
2013-01-03 11:44:00,31.9,18.4,30.21,SSW,213,1.3,3.5,57,0.00,OVC,,0.00,236.0,WeatherDisplay:10.37,2013-01-03 16:44:00,
2013-01-03 11:49:00,32.1,18.6,30.21,SW,215,1.7,3.3,57,0.00,OVC,,0.00,221.0,WeatherDisplay:10.37,2013-01-03 16:49:00,
2013-01-03 11:54:00,32.1,17.7,30.20,SW,222,6.7,6.9,55,0.00,OVC,,0.00,229.0,WeatherDisplay:10.37,2013-01-03 16:54:00,
2013-01-03 11:59:00,31.9,17.1,30.20,SW,225,5.7,6.9,54,0.00,OVC,,0.00,234.0,WeatherDisplay:10.37,2013-01-03 16:59:00,
2013-01-03 12:04:00,31.9,17.5,30.20,SW,223,5.4,8.3,55,0.00,OVC,,0.00,264.0,WeatherDisplay:10.37,2013-01-03 17:04:00,
2013-01-03 12:09:00,32.1,17.7,30.19,SW,223,0.2,3.5,55,0.00,OVC,,0.00,308.0,WeatherDisplay:10.37,2013-01-03 17:09:00,
2013-01-03 12:14:00,32.7,18.3,30.19,SSE,162,6.2,10.4,55,0.00,CLR,,0.00,262.0,WeatherDisplay:10.37,2013-01-03 17:14:00,
2013-01-03 12:19:00,32.7,17.4,30.19,SW,223,6.7,8.1,53,0.00,CLR,,0.00,320.0,WeatherDisplay:10.37,2013-01-03 17:19:00,
2013-01-03 12:24:00,32.8,18.0,30.18,SW,223,2.1,4.6,54,0.00,CLR,,0.00,276.0,WeatherDisplay:10.37,2013-01-03 17:24:00,
2013-01-03 12:29:00,33.1,17.8,30.18,SW,235,8.3,8.3,53,0.00,CLR,,0.00,288.0,WeatherDisplay:10.37,2013-01-03 17:29:00,
2013-01-03 12:34:00,32.9,17.6,30.17,SSW,209,5.3,6.9,53,0.00,CLR,,0.00,345.0,WeatherDisplay:10.37,2013-01-03 17:34:00,
2013-01-03 12:39:00,33.1,17.4,30.17,SW,225,8.1,8.1,52,0.00,CLR,,0.00,464.0,WeatherDisplay:10.37,2013-01-03 17:39:00,
2013-01-03 12:44:00,33.5,19.0,30.17,SW,236,10.7,10.7,55,0.00,CLR,,0.00,457.0,WeatherDisplay:10.37,2013-01-03 17:44:00,
2013-01-03 12:49:00,33.7,18.4,30.17,SW,231,10.3,15.0,53,0.00,CLR,,0.00,454.0,WeatherDisplay:10.37,2013-01-03 17:49:00,
2013-01-03 12:54:00,33.7,18.4,30.17,SSE,156,9.8,10.4,53,0.00,CLR,,0.00,448.0,WeatherDisplay:10.37,2013-01-03 17:54:00,
2013-01-03 12:59:00,34.1,19.2,30.16,SW,222,6.7,10.4,54,0.00,CLR,,0.00,443.0,WeatherDisplay:10.37,2013-01-03 17:59:00,
2013-01-03 13:04:00,34.3,18.5,30.16,South,176,7.8,8.3,52,0.00,CLR,,0.00,438.0,WeatherDisplay:10.37,2013-01-03 18:04:00,
2013-01-03 13:09:00,34.6,18.8,30.16,SW,227,11.7,11.7,52,0.00,CLR,,0.00,431.0,WeatherDisplay:10.37,2013-01-03 18:09:00,
2013-01-03 13:14:00,34.6,18.8,30.16,WSW,238,10.0,10.4,52,0.00,BKN,,0.00,425.0,WeatherDisplay:10.37,2013-01-03 18:14:00,
2013-01-03 13:19:00,34.7,18.9,30.16,SW,236,8.2,8.2,52,0.00,BKN,,0.00,418.0,WeatherDisplay:10.37,2013-01-03 18:19:00,
2013-01-03 13:24:00,34.9,19.0,30.16,SW,226,6.0,6.6,52,0.00,BKN,,0.00,413.0,WeatherDisplay:10.37,2013-01-03 18:24:00,
2013-01-03 13:29:00,34.9,18.6,30.16,SW,230,2.4,4.6,51,0.00,BKN,,0.00,406.0,WeatherDisplay:10.37,2013-01-03 18:29:00,
2013-01-03 13:34:00,35.2,18.9,30.16,SW,236,8.6,10.4,51,0.00,BKN,,0.00,401.0,WeatherDisplay:10.37,2013-01-03 18:34:00,
2013-01-03 13:39:00,35.0,18.2,30.15,SW,229,12.0,15.0,50,0.00,BKN,,0.00,394.0,WeatherDisplay:10.37,2013-01-03 18:39:00,
2013-01-03 13:44:00,35.2,19.3,30.15,SW,234,6.7,8.1,52,0.00,BKN,,0.00,387.0,WeatherDisplay:10.37,2013-01-03 18:44:00,
2013-01-03 13:49:00,35.3,18.5,30.15,SW,222,8.8,8.8,50,0.00,BKN,,0.00,380.0,WeatherDisplay:10.37,2013-01-03 18:49:00,
2013-01-03 13:54:00,35.8,19.0,30.15,SE,144,7.7,11.6,50,0.00,BKN,,0.00,373.0,WeatherDisplay:10.37,2013-01-03 18:54:00,
2013-01-03 14:00:00,35.9,18.1,30.15,SW,235,7.5,11.5,48,0.00,BKN,,0.00,366.0,WeatherDisplay:10.37,2013-01-03 19:00:00,
2013-01-03 14:05:00,36.0,19.1,30.15,SW,234,8.8,10.4,50,0.00,BKN,,0.00,357.0,WeatherDisplay:10.37,2013-01-03 19:05:00,
2013-01-03 14:10:00,36.2,18.9,30.15,SSE,167,3.5,6.9,49,0.00,BKN,,0.00,350.0,WeatherDisplay:10.37,2013-01-03 19:10:00,
2013-01-03 14:15:00,36.2,17.9,30.15,SSE,151,0.7,6.6,47,0.00,SCT,,0.00,338.0,WeatherDisplay:10.37,2013-01-03 19:15:00,
2013-01-03 14:52:00,36.8,17.9,30.14,WSW,246,6.1,10.4,46,0.00,SCT,,0.00,265.0,WeatherDisplay:10.37,2013-01-03 19:52:00,
2013-01-03 14:57:00,36.9,19.0,30.14,SW,234,4.2,6.9,48,0.00,SCT,,0.00,253.0,WeatherDisplay:10.37,2013-01-03 19:57:00,
2013-01-03 15:02:00,37.0,18.6,30.14,SW,230,4.2,10.4,47,0.00,SCT,,0.00,239.0,WeatherDisplay:10.37,2013-01-03 20:02:00,
2013-01-03 15:07:00,37.0,18.6,30.14,SW,232,9.5,11.6,47,0.00,SCT,,0.00,225.0,WeatherDisplay:10.37,2013-01-03 20:07:00,
2013-01-03 15:12:00,37.0,18.1,30.14,SW,234,7.1,9.9,46,0.00,FEW,,0.00,211.0,WeatherDisplay:10.37,2013-01-03 20:12:00,
2013-01-03 15:17:00,37.0,18.6,30.14,South,180,5.1,8.3,47,0.00,FEW,,0.00,195.0,WeatherDisplay:10.37,2013-01-03 20:17:00,
2013-01-03 15:22:00,37.2,18.3,30.14,SW,231,9.0,9.0,46,0.00,FEW,,0.00,183.0,WeatherDisplay:10.37,2013-01-03 20:22:00,
2013-01-03 15:27:00,37.2,18.3,30.14,SW,222,5.6,8.3,46,0.00,FEW,,0.00,165.0,WeatherDisplay:10.37,2013-01-03 20:27:00,
2013-01-03 15:32:00,37.2,18.3,30.14,SSE,157,10.8,15.0,46,0.00,FEW,,0.00,153.0,WeatherDisplay:10.37,2013-01-03 20:32:00,
2013-01-03 15:37:00,37.0,18.6,30.14,SW,216,9.6,13.2,47,0.00,FEW,,0.00,137.0,WeatherDisplay:10.37,2013-01-03 20:37:00,
2013-01-03 15:42:00,37.0,18.6,30.14,SW,225,9.9,15.0,47,0.00,FEW,,0.00,123.0,WeatherDisplay:10.37,2013-01-03 20:42:00,
2013-01-03 15:47:00,36.9,18.5,30.14,SW,214,6.1,6.6,47,0.00,FEW,,0.00,107.0,WeatherDisplay:10.37,2013-01-03 20:47:00,
2013-01-03 15:52:00,36.9,18.5,30.14,SW,232,8.5,9.9,47,0.00,FEW,,0.00,93.0,WeatherDisplay:10.37,2013-01-03 20:52:00,
2013-01-03 15:57:00,36.9,18.5,30.14,SW,231,6.4,8.1,47,0.00,FEW,,0.00,79.0,WeatherDisplay:10.37,2013-01-03 20:57:00,
2013-01-03 16:02:00,36.9,18.5,30.15,SW,234,2.5,8.3,47,0.00,FEW,,0.00,69.0,WeatherDisplay:10.37,2013-01-03 21:02:00,
2013-01-03 16:07:00,36.9,18.5,30.15,SW,235,3.8,6.9,47,0.00,FEW,,0.00,58.0,WeatherDisplay:10.37,2013-01-03 21:07:00,
2013-01-03 16:12:00,36.9,18.5,30.15,SW,233,4.8,5.0,47,0.00,FEW,,0.00,47.0,WeatherDisplay:10.37,2013-01-03 21:12:00,
2013-01-03 16:17:00,36.9,19.0,30.14,SW,236,6.6,10.4,48,0.00,FEW,,0.00,37.0,WeatherDisplay:10.37,2013-01-03 21:17:00,
2013-01-03 16:22:00,36.8,18.9,30.15,SSW,207,5.0,8.3,48,0.00,FEW,,0.00,28.0,WeatherDisplay:10.37,2013-01-03 21:22:00,
2013-01-03 16:27:00,36.5,18.6,30.15,SW,219,5.8,6.9,48,0.00,FEW,,0.00,21.0,WeatherDisplay:10.37,2013-01-03 21:27:00,
2013-01-03 16:32:00,36.5,18.6,30.15,SW,223,3.8,5.0,48,0.00,FEW,,0.00,19.0,WeatherDisplay:10.37,2013-01-03 21:32:00,
2013-01-03 16:37:00,36.2,18.4,30.15,SW,223,1.6,4.6,48,0.00,FEW,,0.00,18.0,WeatherDisplay:10.37,2013-01-03 21:37:00,
2013-01-03 16:43:00,35.8,18.5,30.16,SW,224,0.5,1.1,49,0.00,FEW,,0.00,14.0,WeatherDisplay:10.37,2013-01-03 21:43:00,
2013-01-03 16:48:00,35.5,18.7,30.15,SW,224,1.2,4.6,50,0.00,FEW,,0.00,11.0,WeatherDisplay:10.37,2013-01-03 21:48:00,
2013-01-03 16:53:00,35.2,18.4,30.15,SW,224,3.4,5.0,50,0.00,FEW,,0.00,9.0,WeatherDisplay:10.37,2013-01-03 21:53:00,
2013-01-03 16:58:00,34.9,18.6,30.15,SW,224,3.9,4.6,51,0.00,FEW,,0.00,5.0,WeatherDisplay:10.37,2013-01-03 21:58:00,
2013-01-03 17:03:00,34.6,18.8,30.16,SW,224,0.1,3.5,52,0.00,FEW,,0.00,0.0,WeatherDisplay:10.37,2013-01-03 22:03:00,
2013-01-03 17:08:00,34.3,18.9,30.16,SW,224,0.1,1.7,53,0.00,FEW,,0.00,0.0,WeatherDisplay:10.37,2013-01-03 22:08:00,
2013-01-03 17:13:00,34.0,18.6,30.16,SW,224,3.4,3.5,53,0.00,FEW,,0.00,0.0,WeatherDisplay:10.37,2013-01-03 22:13:00,
2013-01-03 17:18:00,33.8,18.5,30.16,SW,224,1.9,4.6,53,0.00,FEW,,0.00,0.0,WeatherDisplay:10.37,2013-01-03 22:18:00,
2013-01-03 17:23:00,33.4,18.5,30.16,SW,224,0.0,0.0,54,0.00,FEW,,0.00,0.0,WeatherDisplay:10.37,2013-01-03 22:23:00,
2013-01-03 17:28:00,33.1,18.7,30.16,SW,224,0.0,0.0,55,0.00,FEW,,0.00,0.0,WeatherDisplay:10.37,2013-01-03 22:28:00,
2013-01-03 17:33:00,32.7,18.3,30.17,SW,224,0.0,0.0,55,0.00,FEW,,0.00,0.0,WeatherDisplay:10.37,2013-01-03 22:33:00,
2013-01-03 17:38:00,32.1,18.2,30.17,SW,224,0.3,1.7,56,0.00,FEW,,0.00,0.0,WeatherDisplay:10.37,2013-01-03 22:38:00,
2013-01-03 17:43:00,31.8,18.3,30.17,SW,224,0.1,1.7,57,0.00,FEW,,0.00,0.0,WeatherDisplay:10.37,2013-01-03 22:43:00,
2013-01-03 17:48:00,31.6,18.1,30.17,SW,224,0.0,0.0,57,0.00,FEW,,0.00,0.0,WeatherDisplay:10.37,2013-01-03 22:48:00,
2013-01-03 17:53:00,31.2,18.1,30.17,SW,224,0.2,0.0,58,0.00,FEW,,0.00,0.0,WeatherDisplay:10.37,2013-01-03 22:53:00,
2013-01-03 17:58:00,31.2,18.1,30.17,SW,224,0.0,0.0,58,0.00,FEW,,0.00,0.0,WeatherDisplay:10.37,2013-01-03 22:58:00,
2013-01-03 18:03:00,31.0,18.3,30.17,SW,224,0.0,0.0,59,0.00,FEW,,0.00,0.0,WeatherDisplay:10.37,2013-01-03 23:03:00,
2013-01-03 18:08:00,30.3,18.1,30.17,SW,224,0.1,1.1,60,0.00,FEW,,0.00,0.0,WeatherDisplay:10.37,2013-01-03 23:08:00,
2013-01-03 18:13:00,29.8,17.6,30.17,SW,224,0.0,1.1,60,0.00,CLR,,0.00,0.0,WeatherDisplay:10.37,2013-01-03 23:13:00,
2013-01-03 18:18:00,29.1,17.7,30.17,SW,224,0.0,0.0,62,0.00,CLR,,0.00,0.0,WeatherDisplay:10.37,2013-01-03 23:18:00,
2013-01-03 18:23:00,29.1,17.7,30.17,SW,224,0.0,0.0,62,0.00,CLR,,0.00,0.0,WeatherDisplay:10.37,2013-01-03 23:23:00,
2013-01-03 18:28:00,28.8,17.8,30.17,SW,224,0.0,0.0,63,0.00,CLR,,0.00,0.0,WeatherDisplay:10.37,2013-01-03 23:28:00,
2013-01-03 18:33:00,28.5,17.9,30.18,SW,224,0.0,0.0,64,0.00,CLR,,0.00,0.0,WeatherDisplay:10.37,2013-01-03 23:33:00,
2013-01-03 18:38:00,28.5,17.9,30.18,SW,224,0.0,0.0,64,0.00,CLR,,0.00,0.0,WeatherDisplay:10.37,2013-01-03 23:38:00,
2013-01-03 18:43:00,28.4,17.8,30.18,SW,224,0.0,0.0,64,0.00,CLR,,0.00,0.0,WeatherDisplay:10.37,2013-01-03 23:43:00,
2013-01-03 18:48:00,27.9,17.3,30.18,SW,224,0.0,0.0,64,0.00,CLR,,0.00,0.0,WeatherDisplay:10.37,2013-01-03 23:48:00,
2013-01-03 18:53:00,27.5,17.3,30.18,SW,224,0.0,0.0,65,0.00,CLR,,0.00,0.0,WeatherDisplay:10.37,2013-01-03 23:53:00,
2013-01-03 18:58:00,27.2,17.3,30.18,SW,224,0.0,0.0,66,0.00,CLR,,0.00,0.0,WeatherDisplay:10.37,2013-01-03 23:58:00,
2013-01-03 19:03:00,26.9,17.0,30.18,SW,224,0.0,0.0,66,0.00,CLR,,0.00,0.0,WeatherDisplay:10.37,2013-01-04 00:03:00,
2013-01-03 19:08:00,26.6,17.1,30.18,SW,224,0.0,0.0,67,0.00,CLR,,0.00,0.0,WeatherDisplay:10.37,2013-01-04 00:08:00,
2013-01-03 19:13:00,26.3,17.2,30.19,SW,224,0.3,1.1,68,0.00,CLR,,0.00,0.0,WeatherDisplay:10.37,2013-01-04 00:13:00,
2013-01-03 19:18:00,26.0,17.2,30.19,SW,224,0.0,1.7,69,0.00,CLR,,0.00,0.0,WeatherDisplay:10.37,2013-01-04 00:18:00,
2013-01-03 19:23:00,26.0,17.6,30.19,SW,224,0.0,1.1,70,0.00,CLR,,0.00,0.0,WeatherDisplay:10.37,2013-01-04 00:23:00,
2013-01-03 19:28:00,25.8,17.7,30.19,SW,224,0.4,1.7,71,0.00,CLR,,0.00,0.0,WeatherDisplay:10.37,2013-01-04 00:28:00,
2013-01-03 19:33:00,27.0,18.8,30.19,West,261,4.3,5.0,71,0.00,CLR,,0.00,0.0,WeatherDisplay:10.37,2013-01-04 00:33:00,
2013-01-03 19:38:00,29.0,19.1,30.19,WNW,289,7.0,8.3,66,0.00,CLR,,0.00,0.0,WeatherDisplay:10.37,2013-01-04 00:38:00,
2013-01-03 19:43:00,31.3,18.2,30.18,NW,304,8.5,11.6,58,0.00,CLR,,0.00,0.0,WeatherDisplay:10.37,2013-01-04 00:43:00,
2013-01-03 19:48:00,32.7,17.9,30.18,WNW,302,8.0,8.3,54,0.00,CLR,,0.00,0.0,WeatherDisplay:10.37,2013-01-04 00:48:00,
2013-01-03 19:53:00,33.7,17.9,30.18,WNW,300,5.3,8.3,52,0.00,CLR,,0.00,0.0,WeatherDisplay:10.37,2013-01-04 00:53:00,
2013-01-03 19:58:00,34.1,17.4,30.18,WNW,300,4.4,5.0,50,0.00,CLR,,0.00,0.0,WeatherDisplay:10.37,2013-01-04 00:58:00,
2013-01-03 20:03:00,34.3,17.1,30.18,WNW,296,0.0,3.5,49,0.00,CLR,,0.00,0.0,WeatherDisplay:10.37,2013-01-04 01:03:00,
2013-01-03 20:08:00,34.3,17.1,30.18,WNW,296,0.0,0.0,49,0.00,CLR,,0.00,0.0,WeatherDisplay:10.37,2013-01-04 01:08:00,
2013-01-03 20:13:00,34.1,16.9,30.18,WNW,296,0.0,0.0,49,0.00,CLR,,0.00,0.0,WeatherDisplay:10.37,2013-01-04 01:13:00,
2013-01-03 20:18:00,33.8,17.1,30.18,WNW,296,0.0,0.0,50,0.00,CLR,,0.00,0.0,WeatherDisplay:10.37,2013-01-04 01:18:00,
2013-01-03 20:23:00,33.2,16.5,30.18,WNW,296,6.2,6.2,50,0.00,CLR,,0.00,0.0,WeatherDisplay:10.37,2013-01-04 01:23:00,
2013-01-03 20:28:00,32.8,17.1,30.18,WNW,296,2.0,5.0,52,0.00,CLR,,0.00,0.0,WeatherDisplay:10.37,2013-01-04 01:28:00,
2013-01-03 20:33:00,32.5,17.2,30.18,SE,129,6.2,6.9,53,0.00,CLR,,0.00,0.0,WeatherDisplay:10.37,2013-01-04 01:33:00,
2013-01-03 20:38:00,31.9,16.7,30.18,SE,128,3.6,5.0,53,0.00,CLR,,0.00,0.0,WeatherDisplay:10.37,2013-01-04 01:38:00,
2013-01-03 20:43:00,31.8,17.0,30.18,SE,128,0.0,1.1,54,0.00,CLR,,0.00,0.0,WeatherDisplay:10.37,2013-01-04 01:43:00,
2013-01-03 20:48:00,31.8,17.0,30.18,SE,128,0.1,1.1,54,0.00,CLR,,0.00,0.0,WeatherDisplay:10.37,2013-01-04 01:48:00,
2013-01-03 20:53:00,31.6,16.8,30.18,WSW,247,0.1,1.7,54,0.00,CLR,,0.00,0.0,WeatherDisplay:10.37,2013-01-04 01:53:00,
2013-01-03 20:58:00,32.7,17.4,30.18,WNW,288,5.6,11.5,53,0.00,CLR,,0.00,0.0,WeatherDisplay:10.37,2013-01-04 01:58:00,
2013-01-03 21:03:00,34.1,17.8,30.17,West,281,11.6,15.0,51,0.00,CLR,,0.00,0.0,WeatherDisplay:10.37,2013-01-04 02:03:00,
2013-01-03 21:08:00,34.9,18.1,30.17,WNW,291,7.2,11.5,50,0.00,CLR,,0.00,0.0,WeatherDisplay:10.37,2013-01-04 02:08:00,
2013-01-03 21:13:00,34.7,17.9,30.17,WNW,290,5.5,6.6,50,0.00,CLR,,0.00,0.0,WeatherDisplay:10.37,2013-01-04 02:13:00,
2013-01-03 21:18:00,34.6,17.8,30.17,West,269,5.2,8.1,50,0.00,CLR,,0.00,0.0,WeatherDisplay:10.37,2013-01-04 02:18:00,
2013-01-03 21:23:00,34.6,17.8,30.18,SW,229,6.6,6.9,50,0.00,CLR,,0.00,0.0,WeatherDisplay:10.37,2013-01-04 02:23:00,
2013-01-03 21:28:00,34.3,17.6,30.18,SW,236,0.2,1.1,50,0.00,CLR,,0.00,0.0,WeatherDisplay:10.37,2013-01-04 02:28:00,
2013-01-03 21:33:00,34.1,17.8,30.18,WNW,291,5.0,8.1,51,0.00,CLR,,0.00,0.0,WeatherDisplay:10.37,2013-01-04 02:33:00,
2013-01-03 21:38:00,34.1,18.3,30.18,West,274,5.4,6.9,52,0.00,CLR,,0.00,0.0,WeatherDisplay:10.37,2013-01-04 02:38:00,
2013-01-03 21:43:00,34.3,18.5,30.18,WNW,284,7.2,10.4,52,0.00,CLR,,0.00,0.0,WeatherDisplay:10.37,2013-01-04 02:43:00,
2013-01-03 21:48:00,34.3,18.5,30.18,West,277,12.4,12.4,52,0.00,CLR,,0.00,0.0,WeatherDisplay:10.37,2013-01-04 02:48:00,
2013-01-03 21:53:00,34.4,18.6,30.18,WNW,295,5.1,6.9,52,0.00,CLR,,0.00,0.0,WeatherDisplay:10.37,2013-01-04 02:53:00,
2013-01-03 21:58:00,34.4,18.6,30.18,WSW,258,0.7,4.6,52,0.00,CLR,,0.00,0.0,WeatherDisplay:10.37,2013-01-04 02:58:00,
2013-01-03 22:04:00,34.1,18.7,30.18,WSW,258,0.0,0.0,53,0.00,CLR,,0.00,0.0,WeatherDisplay:10.37,2013-01-04 03:04:00,
2013-01-03 22:09:00,34.0,18.6,30.18,WSW,258,0.0,1.1,53,0.00,CLR,,0.00,0.0,WeatherDisplay:10.37,2013-01-04 03:09:00,
2013-01-03 22:14:00,33.7,18.4,30.18,WSW,258,0.0,1.1,53,0.00,CLR,,0.00,0.0,WeatherDisplay:10.37,2013-01-04 03:14:00,
2013-01-03 22:19:00,33.5,18.6,30.18,WSW,258,0.0,0.0,54,0.00,CLR,,0.00,0.0,WeatherDisplay:10.37,2013-01-04 03:19:00,
2013-01-03 22:24:00,33.2,18.3,30.18,WSW,258,0.1,3.5,54,0.00,CLR,,0.00,0.0,WeatherDisplay:10.37,2013-01-04 03:24:00,
2013-01-03 22:29:00,32.8,18.4,30.18,WSW,257,0.2,1.7,55,0.00,CLR,,0.00,0.0,WeatherDisplay:10.37,2013-01-04 03:29:00,
2013-01-03 22:34:00,32.7,18.7,30.18,WSW,257,0.1,1.1,56,0.00,CLR,,0.00,0.0,WeatherDisplay:10.37,2013-01-04 03:34:00,
2013-01-03 22:39:00,32.5,18.5,30.18,WSW,257,0.2,1.7,56,0.00,CLR,,0.00,0.0,WeatherDisplay:10.37,2013-01-04 03:39:00,
2013-01-03 22:44:00,32.1,18.6,30.18,South,174,3.0,5.0,57,0.00,CLR,,0.00,0.0,WeatherDisplay:10.37,2013-01-04 03:44:00,
2013-01-03 22:49:00,31.6,18.5,30.19,South,169,2.4,4.6,58,0.00,CLR,,0.00,0.0,WeatherDisplay:10.37,2013-01-04 03:49:00,
2013-01-03 22:54:00,31.3,18.6,30.19,South,169,0.1,1.1,59,0.00,CLR,,0.00,0.0,WeatherDisplay:10.37,2013-01-04 03:54:00,
2013-01-03 22:59:00,31.3,18.6,30.18,SW,227,4.6,6.6,59,0.00,CLR,,0.00,0.0,WeatherDisplay:10.37,2013-01-04 03:59:00,
2013-01-03 23:04:00,31.6,18.9,30.18,West,275,4.4,6.9,59,0.00,CLR,,0.00,0.0,WeatherDisplay:10.37,2013-01-04 04:04:00,
2013-01-03 23:09:00,31.9,18.8,30.18,West,279,1.7,4.6,58,0.00,CLR,,0.00,0.0,WeatherDisplay:10.37,2013-01-04 04:09:00,
2013-01-03 23:14:00,31.9,18.8,30.18,West,261,0.5,1.7,58,0.00,CLR,,0.00,0.0,WeatherDisplay:10.37,2013-01-04 04:14:00,
2013-01-03 23:19:00,31.6,18.9,30.19,ESE,123,2.6,6.9,59,0.00,CLR,,0.00,0.0,WeatherDisplay:10.37,2013-01-04 04:19:00,
2013-01-03 23:24:00,31.3,19.0,30.19,ESE,123,0.0,1.1,60,0.00,CLR,,0.00,0.0,WeatherDisplay:10.37,2013-01-04 04:24:00,
2013-01-03 23:29:00,31.2,18.9,30.18,ESE,123,0.1,1.1,60,0.00,CLR,,0.00,0.0,WeatherDisplay:10.37,2013-01-04 04:29:00,
2013-01-03 23:34:00,31.0,18.7,30.18,SSW,212,2.4,6.9,60,0.00,CLR,,0.00,0.0,WeatherDisplay:10.37,2013-01-04 04:34:00,
2013-01-03 23:39:00,31.2,18.9,30.18,SSW,212,0.0,0.0,60,0.00,CLR,,0.00,0.0,WeatherDisplay:10.37,2013-01-04 04:39:00,
2013-01-03 23:44:00,31.5,18.8,30.18,SSW,213,1.6,3.3,59,0.00,CLR,,0.00,0.0,WeatherDisplay:10.37,2013-01-04 04:44:00,
2013-01-03 23:49:00,31.8,19.1,30.18,WNW,298,12.7,15.0,59,0.00,CLR,,0.00,0.0,WeatherDisplay:10.37,2013-01-04 04:49:00,
2013-01-03 23:54:00,32.7,19.5,30.18,West,261,5.1,6.9,58,0.00,CLR,,0.00,0.0,WeatherDisplay:10.37,2013-01-04 04:54:00,
2013-01-03 23:59:00,33.4,19.4,30.17,WSW,249,6.6,8.3,56,0.00,CLR,,0.00,0.0,WeatherDisplay:10.37,2013-01-04 04:59:00,